Regional Weather Roundup
Issued by NWS Charleston, WV

Home | Current Version | Previous Version | Graphics & Text | Print | Product List | Glossary On
Versions: 1 2 3 4 5 6 7 8 9 10 11 12 13 14 15 16 17 18 19 20 21 22 23 24 25 26 27 28
000
ASUS41 KRLX 051410
RWRRLX
West Virginia Regional Weather Roundup
National Weather Service Charleston WV
1000 AM EDT THU MAY 05 2016

Note: "fair" indicates few or no clouds below 12,000 feet with no
significant weather and/or obstructions to visibility.

WVZ003-051500-
Northern Panhandle of West Virginia

CITY           SKY/WX    TMP DP  RH WIND       PRES   REMARKS
WHEELING       CLOUDY    51  47  86 NW9       29.72S
$$

WVZ009-051500-
Northwest West Virginia

CITY           SKY/WX    TMP DP  RH WIND       PRES   REMARKS
PARKERSBURG    CLOUDY    47  45  93 VRB6      29.77R
$$

WVZ006-051500-
Western West Virginia

CITY           SKY/WX    TMP DP  RH WIND       PRES   REMARKS
HUNTINGTON     CLOUDY    50  42  74 VRB6      29.77R
$$

WVZ015-051500-
West Central West Virginia

CITY           SKY/WX    TMP DP  RH WIND       PRES   REMARKS
CHARLESTON     CLOUDY    47  39  74 NW6       29.76R
$$

WVZ022-031-051500-
North Central West Virginia

CITY           SKY/WX    TMP DP  RH WIND       PRES   REMARKS
CLARKSBURG     LGT RAIN  50  48  93 N5        29.70R FOG
MORGANTOWN     LGT RAIN  51  46  83 N5        29.71R
$$

WVZ025-035-042-045-051500-
Southern West Virginia

CITY           SKY/WX    TMP DP  RH WIND       PRES   REMARKS
BECKLEY        CLOUDY    40  37  89 N9        29.71R
LOGAN          NOT AVBL
BLUEFIELD      CLOUDY    39  35  86 NW10      29.71R
LEWISBURG      LGT RAIN  43  40  90 W3        29.67S
$$

WVZ047-051500-
Northern Mountains of West Virginia

CITY           SKY/WX    TMP DP  RH WIND       PRES   REMARKS
ELKINS         RAIN      48  44  86 NW3       29.68S FOG
$$

WVZ052-051500-
Eastern Panhandle of West Virginia

CITY           SKY/WX    TMP DP  RH WIND       PRES   REMARKS
MARTINSBURG    CLOUDY    52  47  83 NE8       29.68S
PETERSBURG     RAIN      53  49  89 N5        29.69R
$$




USA.gov is the U.S. government's official web portal to all federal, state and local government web resources and services.